Simultaneous Nadir Overpasses (SNOs) Predictions

Prediction of SNOs between AURA and NPP Satellite Orbit:

Table of predicted SNOs for the next 14.0 days since TLE Epoch: 7/5/2012
Index Date (AURA) Time (AURA) AURA Lat,Lon Date (NPP) Time (NPP) NPP Lat,Lon Distance(km) Time Diff (sec)
1 07/05/2012 20:47:29 79.80, 126.90 07/05/2012 20:47:08 79.80, 127.05 3.10 21
2 07/05/2012 21:36:51 -79.97, -64.07 07/05/2012 21:37:48 -79.97, -64.02 1.02 57
3 07/08/2012 12:14:34 -79.63, 73.95 07/08/2012 12:13:24 -79.63, 73.96 0.26 70
4 07/08/2012 13:03:54 79.85,-116.76 07/08/2012 13:04:01 79.86,-116.64 2.49 7
5 07/11/2012 04:30:59 -79.72,-169.54 07/11/2012 04:30:17 -79.72,-169.48 1.15 42
6 07/11/2012 05:20:21 79.86, -0.81 07/11/2012 05:20:57 79.86, -0.93 2.46 36
7 07/13/2012 20:47:25 -79.75, -53.40 07/13/2012 20:47:12 -79.75, -53.50 2.19 13
8 07/13/2012 21:36:45 79.96, 115.88 07/13/2012 21:37:49 79.97, 115.93 1.20 64
9 07/16/2012 12:14:27 79.65,-105.89 07/16/2012 12:13:25 79.65,-105.87 0.39 62
10 07/16/2012 13:03:48 -79.88, 63.47 07/16/2012 13:04:03 -79.89, 63.61 3.02 15
11 07/19/2012 04:30:50 79.73, 10.56 07/19/2012 04:30:17 79.74, 10.64 1.64 33




NCC Satellite Simultaneous Nadir Overpasses (SNOs) Prediction Service
